Wind_Speed
12 12 13 13 13 13 14 14 14 14 15 15 15 15 14 14 14 14 14 14 14 14 15 15 15 15 16 17 17 17 17 16 16 16 16 16 16 16 16 17 17 17 17 17 17 18 18 17 17 16 16 16 16 16 16 17 16 17 18 20 21 20 18 16 15 17 20 19 19 19 20 23 22 20 22 24 23 22 22 20 21 21 20 20 19 19 20 20
14 14 14 15 15 15 15 15 15 16 16 16 16 17 16 16 16 16 16 16 16 16 16 16 17 17 17 18 18 19 18 17 17 17 18 18 17 17 17 17 18 18 18 18 18 19 20 20 19 19 19 18 18 18 18 18 18 19 21 23 23 20 19 18 16 18 20 21 22 22 22 24 24 22 24 25 24 23 21 18 20 20 18 20 22 22 22 21
16 16 16 16 17 17 17 17 17 17 17 18 18 18 18 18 18 18 17 17 17 17 18 18 18 18 18 18 19 20 19 18 17 18 19 19 18 17 17 17 17 18 18 19 19 20 20 21 21 22 21 21 20 20 21 20 21 22 24 26 24 20 21 21 18 18 20 22 25 24 25 25 23 24 26 26 26 24 19 17 20 20 19 21 23 24 23 22
17 18 18 18 18 18 18 18 18 19 19 19 19 19 19 19 20 19 19 19 19 19 19 19 20 19 19 19 20 20 20 19 18 18 18 18 17 16 16 16 16 17 17 17 18 19 20 21 22 23 23 23 22 22 23 21 22 25 27 27 24 22 23 22 19 20 21 23 26 26 26 26 24 25 27 28 29 26 19 19 22 22 22 22 21 22 23 23
19 19 19 20 20 20 20 20 20 20 20 21 21 21 21 21 21 21 21 21 21 21 21 21 21 22 21 21 21 21 22 20 17 17 17 16 16 16 16 16 16 17 18 18 18 19 20 21 22 23 24 24 24 24 24 22 23 28 30 28 26 25 26 24 21 21 23 25 27 27 27 27 26 27 27 29 31 27 21 21 24 25 24 21 21 22 24 25
20 20 21 21 21 21 21 21 21 21 22 22 22 22 22 22 22 22 22 22 22 22 23 23 23 23 23 23 23 23 24 19 16 18 19 19 19 19 19 19 20 21 21 21 20 20 21 21 22 22 23 25 26 26 25 24 26 30 31 30 27 27 28 26 24 25 25 27 28 27 27 28 29 28 29 32 32 27 23 23 25 25 23 22 22 23 25 27
21 21 22 22 22 22 22 22 22 22 23 23 23 24 23 24 23 23 23 23 23 23 24 24 24 24 24 25 25 25 27 21 18 22 23 21 22 22 22 21 22 23 23 23 22 21 21 21 21 21 23 25 27 27 27 27 28 31 33 32 29 29 30 29 28 29 28 29 29 29 29 29 30 30 33 36 32 27 25 25 25 24 23 24 24 24 25 27
22 23 23 23 24 24 24 23 23 24 24 25 25 25 25 25 25 25 25 24 24 24 24 24 24 24 25 26 26 28 29 22 19 23 22 21 21 21 21 21 22 22 23 23 23 22 22 22 21 21 22 24 26 27 27 28 30 33 34 32 32 32 32 31 32 33 32 32 32 32 32 29 31 33 37 39 32 27 26 25 25 24 25 26 27 26 25 26
23 24 24 24 25 25 25 25 25 25 26 26 26 27 27 27 27 27 27 26 26 26 25 26 26 25 26 26 27 30 26 19 19 21 21 21 21 20 21 22 22 23 23 24 24 25 24 23 22 21 22 24 27 28 28 30 32 34 33 33 34 34 33 34 35 35 35 35 35 36 35 32 32 36 40 38 30 27 27 26 26 27 28 28 29 28 27 27
25 25 25 26 26 26 26 25 25 26 26 27 27 28 28 28 28 28 28 28 27 27 27 27 27 26 27 26 29 31 23 18 21 22 22 22 22 23 23 24 25 25 26 26 26 26 26 25 24 25 26 27 28 30 30 31 33 34 34 35 36 36 36 37 38 37 37 37 38 39 38 35 36 39 41 35 29 29 29 28 28 30 31 29 29 30 30 31
27 27 27 27 27 28 27 27 27 27 27 27 28 28 29 29 29 29 29 29 28 29 29 29 28 28 28 28 31 29 22 22 25 24 24 24 24 25 26 27 28 27 28 28 27 27 27 27 27 27 27 28 29 30 31 33 34 34 34 36 36 36 37 39 39 38 38 39 40 41 41 38 38 41 40 34 32 32 32 31 29 31 31 30 30 31 33 33
27 27 28 28 28 29 29 29 29 29 29 29 29 29 30 30 30 30 30 30 30 30 30 30 30 29 30 31 31 28 25 26 26 25 25 24 24 26 27 28 28 29 29 29 28 28 28 28 29 29 28 29 30 31 33 34 34 34 34 36 38 39 40 40 40 39 39 40 41 40 41 41 39 40 38 34 34 35 35 35 33 33 33 32 33 35 36 36
27 27 27 28 28 28 29 29 29 30 30 30 30 30 31 31 31 31 31 31 31 31 31 31 31 31 32 32 29 27 27 27 27 26 25 24 25 27 27 28 29 30 30 30 30 29 29 29 29 29 28 29 30 30 33 36 37 36 36 38 41 42 43 41 39 39 39 40 42 40 40 44 42 39 36 35 37 38 38 38 37 38 37 37 38 39 39 38
26 27 27 27 27 28 28 28 28 29 29 30 30 30 31 31 31 31 31 32 32 32 32 32 33 32 34 34 29 29 30 28 28 27 25 25 25 25 26 27 28 29 29 29 29 28 29 29 29 29 28 28 28 30 34 37 38 37 38 40 40 42 45 41 38 39 40 40 43 41 41 47 46 40 37 37 40 41 42 41 40 41 41 41 40 41 42 41
26 26 26 26 26 26 27 27 27 27 27 28 28 29 29 29 29 29 30 30 31 31 31 32 33 33 36 34 30 30 29 27 27 26 26 26 25 26 26 27 28 28 29 29 29 29 30 30 30 28 27 27 27 29 35 38 37 35 37 40 40 42 45 42 38 38 40 41 43 42 44 50 49 43 39 39 43 44 44 43 41 41 42 43 43 42 43 42
26 26 25 25 25 26 26 26 26 26 26 26 26 27 27 26 27 27 28 28 29 29 30 30 30 31 34 33 30 29 27 26 25 24 25 25 26 28 28 28 28 27 28 29 29 29 29 29 29 28 28 27 26 29 35 37 35 34 37 40 41 42 44 43 39 37 40 44 45 45 48 52 51 48 44 41 43 45 45 44 42 41 42 43 44 43 43 43
26 26 26 26 25 25 25 25 25 25 25 26 25 25 26 25 25 26 26 27 27 27 28 29 30 32 32 31 29 26 24 23 21 22 23 24 26 28 28 29 28 27 28 27 27 27 29 30 31 31 29 27 26 29 33 33 34 37 38 40 41 40 41 42 42 39 40 45 47 48 53 57 55 50 47 43 41 44 46 46 44 43 43 42 42 42 42 41
26 26 26 26 26 26 26 26 26 25 25 26 26 26 26 26 26 27 27 27 28 28 29 30 30 31 29 27 26 24 22 23 24 24 25 26 28 29 30 31 30 30 30 29 31 32 33 35 36 34 31 30 29 31 34 34 37 40 38 40 41 40 40 40 43 42 41 46 49 49 54 57 55 51 49 45 41 42 45 46 46 45 43 41 40 40 39 39
26 26 26 26 26 26 26 26 27 27 26 27 28 27 28 29 29 29 29 29 29 29 31 31 30 31 29 28 28 28 27 27 28 28 28 29 30 31 32 32 32 32 32 33 35 35 36 38 38 35 34 35 34 35 38 38 39 39 39 40 41 42 44 42 43 41 39 47 50 50 56 57 55 52 48 45 43 43 45 44 44 44 42 39 37 37 36 35
27 27 26 26 26 27 27 27 28 28 27 28 29 29 29 30 31 31 31 31 31 31 33 33 34 35 34 33 32 31 30 29 29 28 29 30 31 33 33 33 34 34 34 35 35 36 37 39 39 39 38 37 35 35 36 37 37 38 39 40 41 44 46 43 42 41 39 49 56 52 55 58 55 53 49 46 44 43 43 42 43 42 40 37 34 33 33 34
28 27 27 27 27 27 28 28 28 28 28 28 29 29 29 31 32 33 35 35 34 34 35 35 37 38 36 34 34 32 31 30 29 28 28 29 31 33 35 36 36 37 36 34 35 36 37 39 40 38 37 35 34 33 34 36 35 36 37 39 41 43 47 47 44 42 39 47 55 50 54 60 55 53 50 45 44 45 44 40 38 37 35 33 33 33 33 32
27 27 27 27 27 27 27 28 28 28 28 28 28 29 29 29 31 33 37 40 38 36 37 37 38 40 36 33 34 31 31 30 28 28 28 29 30 32 36 37 38 38 36 35 37 38 38 39 38 35 32 31 31 31 31 32 33 35 35 37 42 43 47 50 44 39 37 42 51 50 55 61 55 54 52 47 47 43 36 30 26 29 31 33 34 31 25 21
26 27 27 27 27 26 26 26 27 27 27 27 27 28 27 28 30 31 35 40 42 39 37 39 40 39 35 32 32 30 32 33 31 30 29 31 32 33 37 38 38 38 37 37 39 40 39 37 35 32 31 31 31 31 30 33 36 38 37 38 44 42 43 47 43 37 35 40 46 47 54 62 53 45 37 31 30 26 23 25 27 32 35 34 29 19 14 16
26 27 27 27 26 26 25 25 25 25 26 26 26 26 26 27 28 30 34 39 45 42 38 39 39 38 34 31 31 32 34 35 34 33 31 33 33 33 34 34 36 37 37 37 38 41 40 36 34 33 33 33 33 32 31 34 38 39 37 37 39 37 34 40 41 37 36 37 37 39 49 52 31 14 9 9 18 26 29 34 37 37 31 21 13 9 14 18
27 28 28 27 27 26 25 25 25 25 25 25 25 24 25 26 27 30 33 38 46 45 39 37 37 35 32 30 30 32 34 34 33 31 28 28 27 28 29 28 31 33 31 32 34 38 37 30 29 30 29 28 28 28 25 27 33 36 32 28 29 30 30 34 34 33 35 29 25 26 28 28 16 9 16 24 33 37 36 36 34 22 9 2 5 12 18 14
29 28 28 28 27 27 26 26 26 26 26 26 25 25 25 27 28 30 33 37 45 42 31 25 24 23 22 22 22 24 27 26 23 19 17 18 19 21 24 24 26 28 27 27 29 33 31 24 23 24 22 19 20 23 21 21 28 32 26 21 23 26 29 31 28 26 26 22 23 21 14 23 37 37 36 38 35 32 33 30 15 2 8 2 15 19 11 8
30 29 28 28 29 29 28 27 26 27 27 26 26 26 26 26 27 29 29 28 29 24 14 10 11 12 14 14 13 14 13 11 11 12 12 14 17 20 23 24 23 23 23 24 26 28 25 20 20 22 20 19 20 21 19 18 24 29 25 22 23 25 27 28 27 25 27 32 33 25 14 22 44 48 38 34 28 23 23 13 5 14 8 11 26 18 7 7
28 28 28 29 30 31 30 28 27 28 28 28 28 26 26 26 26 26 20 11 10 12 9 7 8 8 8 9 9 10 10 10 13 16 17 18 21 22 23 23 21 21 21 22 28 27 22 21 23 24 24 24 26 22 17 17 22 25 24 24 24 24 26 27 29 28 30 33 24 14 7 11 35 48 34 29 24 15 12 1 12 10 3 21 26 13 11 11
23 25 25 27 30 30 29 27 25 26 26 27 26 25 25 24 25 23 13 6 10 13 12 12 11 9 9 10 12 14 17 19 19 20 20 22 24 22 20 19 18 20 21 23 29 26 22 25 27 28 29 30 28 20 17 18 21 23 23 27 26 25 28 26 27 28 24 22 15 10 7 6 29 44 25 18 15 7 7 4 12 5 16 29 19 11 15 16
22 23 23 25 27 27 27 25 22 23 24 23 22 22 21 20 21 15 7 11 14 14 15 15 11 12 14 15 17 19 20 22 23 23 23 22 22 21 20 20 19 21 22 23 28 26 26 31 32 34 34 30 24 20 21 22 22 25 25 28 28 27 29 27 27 24 13 14 19 19 16 10 18 23 10 7 4 7 10 7 12 13 21 25 14 14 15 17
23 23 23 25 25 24 25 23 21 22 22 21 21 20 18 17 16 8 7 15 18 15 19 18 12 13 16 18 19 20 22 23 23 23 22 21 20 20 20 18 17 19 23 26 29 29 31 34 35 37 33 28 25 24 26 26 25 27 26 27 25 20 18 15 13 10 4 9 17 14 12 11 16 16 9 9 13 19 19 14 19 25 24 21 12 12 14 21
24 25 26 27 27 26 26 24 23 22 21 22 20 18 18 16 17 20 19 19 13 7 9 7 6 8 10 14 17 19 20 20 20 21 22 22 21 20 18 18 18 21 25 28 30 33 36 37 35 35 34 31 30 28 29 31 29 27 27 25 16 7 6 4 3 3 5 11 15 11 7 15 30 40 38 35 34 32 28 22 27 31 27 22 16 16 21 18
27 28 29 29 30 29 27 26 25 23 21 21 19 19 19 13 17 27 27 21 12 7 8 8 10 14 17 20 20 20 20 20 20 20 21 22 22 22 22 24 25 24 25 29 31 32 33 34 32 31 32 30 29 29 29 30 26 22 23 21 12 3 1 3 3 3 6 13 15 13 12 15 30 44 40 39 40 38 36 33 33 35 29 23 28 30 22 11
30 32 32 32 32 31 30 28 27 25 22 21 21 21 20 20 26 28 25 25 22 20 23 25 28 30 29 27 25 24 24 24 24 23 24 26 28 31 31 32 31 28 27 30 31 27 23 25 27 23 23 24 24 24 23 23 21 20 21 20 18 16 9 5 5 3 6 12 10 8 8 9 21 36 40 45 50 50 51 47 43 44 41 38 40 29 12 10
34 35 35 35 35 33 31 29 28 27 24 23 24 25 28 33 35 32 30 33 31 30 33 33 33 34 33 32 30 30 29 28 28 27 29 32 33 34 33 31 28 26 26 26 26 25 20 24 27 20 18 21 23 21 21 21 20 21 21 20 23 27 23 16 14 17 15 11 8 11 14 22 36 49 53 53 55 55 53 49 45 44 41 35 25 10 8 13
37 37 37 37 37 34 31 30 27 26 25 25 26 31 40 42 36 31 30 29 27 27 28 27 28 29 31 32 32 31 30 28 28 27 28 29 30 31 30 29 29 30 31 30 29 26 21 25 30 24 18 19 22 22 22 22 18 14 15 18 21 23 24 21 18 21 19 10 12 19 25 35 41 47 53 53 52 52 47 39 34 28 17 11 9 11 17 20
38 38 39 38 36 33 30 29 26 24 25 28 31 38 46 46 42 39 36 34 33 31 29 27 27 27 25 24 25 25 23 22 23 24 25 25 24 28 31 32 33 34 31 30 33 32 27 30 37 36 30 27 29 30 28 27 25 21 21 25 24 18 20 19 10 7 9 7 11 18 27 34 29 32 50 55 50 50 48 39 27 15 7 9 20 24 23 23
39 39 40 39 35 32 30 28 25 25 27 31 37 43 46 45 44 43 41 41 40 38 34 30 27 26 24 24 27 25 22 21 20 20 23 23 23 27 30 28 28 28 26 27 33 33 29 29 35 40 39 34 33 35 34 33 30 29 30 31 25 16 14 15 8 3 6 6 6 12 23 29 28 34 49 53 50 50 50 45 34 24 20 23 28 24 21 25
38 38 39 39 34 30 28 27 25 26 29 35 41 44 46 47 46 44 42 41 40 37 34 32 30 29 29 31 33 32 29 28 24 22 23 21 21 22 22 20 19 18 21 25 30 32 30 25 26 34 39 32 27 30 36 37 32 27 27 26 26 25 23 21 17 11 9 7 8 11 13 17 27 39 44 45 47 49 50 50 41 34 30 26 26 27 28 30
36 36 38 39 34 29 27 26 27 29 33 40 44 46 48 48 47 47 45 42 39 37 36 36 35 35 36 38 38 37 34 31 29 28 26 23 24 25 22 22 23 21 21 24 27 31 32 27 26 35 39 35 32 34 39 38 30 25 24 24 26 29 29 24 22 24 21 11 7 8 9 16 27 35 39 44 46 46 51 53 46 39 33 27 29 34 35 37
33 34 36 36 33 29 26 26 30 33 37 41 43 46 47 47 48 50 48 44 42 40 39 40 39 40 41 40 39 37 34 33 33 33 33 33 32 30 28 28 26 23 24 27 28 30 32 30 31 36 38 40 43 42 40 36 32 32 32 31 32 32 30 21 15 25 31 21 14 12 10 16 25 31 38 45 46 47 51 53 50 45 39 34 36 38 39 41
30 32 33 32 30 27 25 27 30 33 38 41 42 44 44 45 47 47 47 47 45 42 42 42 42 43 42 41 41 39 37 38 39 37 37 39 37 35 34 33 30 27 28 32 33 34 34 31 31 34 38 42 44 41 40 39 40 41 38 35 34 31 31 25 14 20 28 26 26 24 15 18 27 34 41 45 46 48 50 51 49 47 45 44 45 44 41 40
30 31 30 30 29 27 25 27 30 33 38 39 40 41 42 43 45 45 45 47 44 41 40 41 41 42 41 41 41 41 40 40 41 41 41 40 39 39 37 33 31 31 31 33 32 32 32 28 29 33 36 39 39 39 41 42 40 39 37 37 35 32 35 35 30 30 27 23 25 20 12 16 21 23 29 36 40 42 43 46 47 48 51 51 49 47 44 41
30 30 30 30 29 28 28 31 33 35 36 37 37 39 40 41 43 43 45 46 43 41 40 40 40 41 42 42 41 42 41 37 35 37 36 33 33 35 33 30 29 30 30 30 29 28 27 25 24 22 19 20 22 23 29 35 35 33 32 30 31 34 35 35 39 37 24 22 28 19 11 18 23 23 27 31 34 36 39 45 50 54 58 58 56 53 49 46
28 28 28 29 29 29 32 34 35 35 35 36 37 38 39 41 42 42 43 45 44 42 42 42 42 42 41 40 40 42 42 39 36 35 36 36 35 36 36 35 33 32 31 32 34 34 32 30 28 21 11 8 11 13 18 25 26 23 21 20 22 26 27 28 32 29 18 22 32 25 19 30 36 35 36 36 37 40 43 48 52 55 58 60 60 58 56 56
26 26 27 27 27 29 32 33 33 35 36 36 37 38 40 42 43 42 42 44 43 42 42 43 43 42 38 36 37 37 37 39 38 36 39 41 39 37 36 35 32 30 30 31 34 35 34 33 35 34 29 26 27 29 29 28 28 28 30 32 33 35 36 34 31 28 27 29 33 33 35 39 39 38 39 40 41 42 44 48 51 54 56 58 59 60 60 60
25 26 26 26 24 26 28 30 31 34 35 36 37 39 40 41 41 41 41 42 41 40 41 42 42 42 41 40 40 38 38 39 39 40 42 43 43 43 41 39 39 38 38 38 39 39 37 34 36 38 38 36 37 40 40 39 40 42 42 44 45 44 43 41 38 40 39 30 25 34 41 40 39 40 42 44 44 43 45 49 52 55 57 58 59 59 58 57
26 27 27 27 27 27 28 29 30 32 33 34 36 38 39 40 40 40 39 38 37 37 38 40 40 41 42 40 39 38 39 40 41 42 42 40 41 41 41 41 41 41 41 39 38 38 38 40 43 44 43 42 42 43 44 44 42 41 40 40 42 41 41 43 45 44 40 32 31 40 44 43 43 44 45 47 47 45 46 48 50 52 53 56 58 58 57 56
28 29 28 28 31 32 32 32 32 33 33 33 34 36 38 39 40 40 40 38 38 38 38 40 41 41 41 40 39 39 39 40 41 41 40 38 38 38 39 39 39 39 39 38 37 34 32 35 38 37 36 36 37 38 39 39 37 36 36 35 36 38 40 43 45 44 42 43 47 48 46 45 44 43 44 45 44 44 46 48 50 51 51 52 54 55 55 53
30 31 30 30 32 32 33 33 33 35 35 34 36 38 39 38 38 38 38 39 40 40 41 43 44 44 43 42 41 41 41 40 41 40 37 37 37 37 38 38 39 40 39 38 37 33 29 29 29 27 28 29 30 32 32 32 34 36 37 37 39 43 45 47 48 48 48 48 49 47 44 40 36 35 37 38 39 41 42 44 47 47 46 47 47 48 49 48
31 32 31 32 33 32 34 35 34 35 37 37 39 40 39 38 38 37 38 38 37 37 39 41 43 43 41 39 38 39 39 39 41 40 37 39 41 41 41 41 41 41 38 36 33 30 28 29 32 32 31 33 38 38 38 42 42 39 39 44 48 50 50 51 51 49 47 46 46 44 41 37 34 33 34 35 37 38 37 38 41 41 40 42 43 44 45 44
31 32 32 33 34 34 35 36 36 37 39 40 40 40 40 40 40 40 40 38 36 37 37 38 39 39 37 35 34 35 35 35 36 35 35 37 39 39 38 37 37 36 36 35 33 34 34 34 36 35 30 35 45 45 42 39 31 30 43 51 51 50 49 48 47 45 45 45 45 43 41 40 39 36 34 32 32 33 33 33 35 36 37 38 40 41 42 42
Wind_Direction
277 279 280 280 281 281 282 282 282 283 282 282 281 279 278 276 275 275 274 274 274 275 276 277 278 279 280 281 281 281 281 282 285 287 287 287 290 292 291 291 291 289 289 288 288 288 288 287 286 284 284 284 283 283 283 283 285 285 284 281 280 283 289 297 300 295 292 292 289 287 291 294 299 301 297 294 295 299 301 302 305 310 316 319 315 308 304 301
276 278 279 280 280 280 280 280 281 281 281 282 282 283 282 281 281 280 278 278 278 278 277 277 278 278 278 279 279 279 279 280 283 286 287 286 288 291 291 290 289 288 287 285 285 285 285 285 284 283 283 282 283 283 282 283 284 283 282 279 278 285 292 294 293 291 292 293 290 290 292 293 298 303 297 294 295 299 301 307 312 313 317 317 312 307 301 297
272 273 275 276 276 277 277 278 279 279 279 280 280 281 281 282 282 282 282 282 282 281 281 280 280 279 280 280 281 281 280 282 284 286 287 286 287 289 290 289 287 286 285 284 284 283 283 283 282 282 282 281 282 282 282 282 283 282 278 276 280 289 288 286 289 291 290 289 289 292 292 291 297 298 294 295 297 297 300 312 313 310 314 315 311 306 302 298
270 271 271 272 272 274 275 276 277 277 278 278 279 279 280 280 280 281 282 283 283 283 283 283 283 283 282 282 283 283 283 286 286 285 286 288 288 288 287 288 288 288 288 287 286 286 285 283 281 280 280 281 282 282 282 284 284 280 276 277 284 287 282 283 288 288 285 284 286 289 291 294 296 292 291 295 296 295 301 310 308 307 314 314 310 306 304 302
270 271 271 271 271 272 272 274 275 276 276 277 277 277 278 278 279 280 280 281 282 283 283 284 285 285 284 284 285 286 287 290 290 286 287 290 291 289 286 286 288 290 291 290 288 288 287 285 283 281 281 282 282 283 284 286 283 279 279 281 284 286 284 285 288 284 282 281 281 285 289 293 292 289 291 291 292 296 302 306 304 307 313 312 308 307 305 304
273 273 273 273 273 273 273 273 274 275 276 277 277 277 278 278 278 279 279 281 281 282 283 283 284 284 285 284 284 286 285 287 292 289 287 288 289 288 286 286 286 287 289 289 287 285 284 283 282 282 282 282 282 283 286 286 283 281 281 281 284 287 285 286 288 284 281 279 280 285 287 288 288 288 290 287 288 295 300 303 303 304 307 306 306 307 306 305
274 274 274 275 275 274 274 275 275 276 277 278 278 279 279 279 280 280 280 280 280 281 282 282 283 283 284 283 282 282 280 284 291 288 287 287 287 287 287 287 285 285 287 287 286 285 283 282 283 284 283 283 284 285 286 285 284 282 281 283 286 285 283 286 287 284 283 282 284 286 285 285 287 289 288 284 287 295 299 302 302 300 299 298 300 303 304 303
272 273 273 274 274 274 274 275 276 277 277 278 279 280 280 281 281 281 282 281 282 282 282 282 282 282 283 282 281 278 277 286 289 284 286 286 286 287 287 286 285 284 284 285 285 285 285 286 288 287 284 284 284 284 284 284 283 282 283 286 286 283 282 284 283 283 285 284 286 286 284 286 288 289 285 283 289 297 301 302 298 297 294 292 294 296 296 297
271 271 271 272 273 273 273 274 275 275 276 277 277 278 279 279 280 281 281 282 282 282 283 283 282 283 282 281 281 276 278 288 285 281 284 284 285 285 284 284 283 282 282 283 284 284 285 286 286 283 281 281 281 282 284 283 282 283 285 286 284 283 283 282 281 282 284 284 286 286 285 286 288 288 283 284 295 303 304 300 294 293 291 290 291 291 291 290
271 271 271 271 271 272 272 273 273 274 274 275 276 276 277 277 278 279 280 281 282 282 283 282 282 282 280 280 278 274 280 287 281 281 282 283 284 283 282 282 281 281 280 280 282 283 282 281 280 278 277 278 281 283 284 283 283 285 284 283 283 284 283 281 280 281 283 284 285 285 286 286 286 285 282 288 302 306 302 296 291 290 290 290 289 288 289 289
272 272 272 271 271 272 272 272 272 273 273 275 275 276 277 277 278 278 279 280 281 282 283 283 284 283 282 279 272 273 283 283 278 280 281 282 283 281 281 280 279 280 279 279 279 279 280 279 277 276 276 278 280 282 283 283 284 284 284 284 283 284 282 280 281 283 285 285 285 288 288 286 284 283 284 292 302 302 299 294 290 289 289 289 288 288 289 289
272 272 273 273 273 273 272 272 272 273 273 274 275 276 277 277 277 278 279 279 280 281 281 282 283 282 282 276 271 277 283 280 279 281 282 284 281 278 278 278 278 279 279 279 279 278 278 277 276 275 275 276 279 281 282 283 282 282 284 285 284 284 281 279 282 284 286 288 290 292 290 287 284 283 285 292 297 299 297 293 290 289 290 289 288 288 288 288
273 274 274 274 274 274 274 274 274 274 274 274 275 275 276 276 277 277 278 278 279 279 279 280 280 280 280 276 275 280 280 279 282 284 287 285 280 278 277 276 276 276 277 278 279 279 278 277 276 275 275 276 278 280 280 280 279 280 283 284 285 285 281 280 285 288 291 293 294 295 290 288 287 284 285 291 296 297 294 293 292 291 291 289 288 287 286 286
275 275 275 275 275 275 275 276 276 276 276 276 276 276 276 277 278 278 278 278 278 278 278 278 278 279 278 277 279 280 280 283 285 288 289 285 281 279 278 277 276 276 277 278 278 279 279 278 276 275 275 277 279 279 279 277 276 279 282 281 281 282 281 285 291 294 296 294 296 296 290 290 292 287 286 292 295 296 294 294 293 292 291 289 287 286 285 284
277 277 277 276 276 276 276 276 277 277 277 278 278 278 279 279 280 280 280 280 280 279 279 279 279 280 279 279 281 281 284 287 287 287 285 283 283 280 278 277 277 278 278 278 278 278 278 277 276 277 277 278 279 279 277 274 274 279 278 278 280 280 284 291 292 293 295 292 294 295 291 292 293 290 289 291 293 295 295 295 294 292 290 289 288 286 285 283
278 278 278 278 278 278 278 278 278 278 278 279 279 280 280 281 282 282 282 282 281 281 281 280 280 279 279 282 283 284 287 287 285 283 281 281 281 279 278 277 277 277 277 278 277 276 275 274 276 278 279 279 278 278 276 273 273 276 274 276 281 283 289 295 290 288 291 291 293 293 292 293 292 292 292 292 293 295 295 293 292 291 290 290 290 290 289 287
278 278 278 279 279 279 279 279 279 279 279 279 280 281 281 281 281 282 282 282 282 282 281 280 280 279 280 283 284 284 285 284 284 283 281 280 278 278 277 276 276 276 277 277 276 275 274 276 278 278 278 277 277 276 271 268 273 279 281 281 284 287 291 293 291 290 290 292 295 294 291 290 291 293 293 293 293 293 292 291 291 291 290 291 292 293 294 292
278 279 279 279 279 279 279 279 279 278 279 279 279 279 281 281 281 280 280 280 280 280 279 278 279 278 279 282 283 282 280 280 282 282 281 279 278 277 276 276 276 276 275 274 273 274 274 277 278 275 274 273 274 271 265 271 283 289 290 289 289 290 289 290 292 293 295 295 294 292 290 290 292 294 294 294 293 290 287 288 290 291 293 294 296 297 297 295
278 279 279 279 279 279 279 279 279 278 278 280 280 280 281 281 281 280 280 279 278 278 278 278 277 276 278 281 282 281 280 279 280 280 279 278 275 274 274 275 275 274 273 272 273 274 274 275 273 270 271 274 277 277 277 285 293 292 291 289 289 290 288 289 292 296 302 297 291 291 291 291 293 295 294 292 291 288 284 285 289 292 294 296 297 298 298 298
278 279 280 280 280 280 280 279 279 280 280 280 282 283 284 284 284 283 281 279 278 278 277 277 278 276 277 280 280 280 280 279 277 276 275 273 272 273 273 272 272 271 271 272 273 274 274 272 269 270 276 282 286 287 287 290 289 287 287 286 287 287 286 290 294 300 305 295 291 293 293 293 294 294 294 292 289 286 284 287 290 292 294 296 296 298 302 304
277 278 279 279 280 280 280 280 280 281 281 281 283 284 285 287 287 286 284 281 279 279 278 278 278 277 278 280 280 279 279 276 274 273 271 270 271 271 272 271 270 269 270 272 273 273 271 268 270 277 284 289 289 286 284 284 283 284 285 285 284 284 288 295 298 301 304 294 291 297 297 294 294 294 293 291 288 287 288 289 289 290 291 293 297 301 304 304
277 276 276 277 277 278 279 279 280 280 281 282 283 284 285 286 287 288 287 284 281 280 280 280 278 278 280 279 279 279 276 273 272 271 270 270 269 270 270 270 270 271 272 271 271 270 268 268 275 283 288 287 283 282 282 283 284 284 283 283 282 286 293 297 300 304 306 297 296 301 299 294 295 295 293 291 290 290 291 290 289 290 291 296 302 304 305 311
279 277 277 276 276 276 277 278 278 279 280 281 282 283 284 285 286 287 288 288 285 282 281 281 280 279 280 278 277 275 273 273 272 269 268 268 267 266 267 269 271 273 272 271 270 270 269 273 281 284 282 280 279 281 283 284 284 282 282 281 283 291 295 294 301 309 307 299 299 303 299 296 300 300 298 298 293 289 293 295 297 299 299 303 303 298 313 331
282 282 281 280 279 278 278 279 279 279 280 281 281 282 283 284 286 287 289 290 288 285 284 284 282 281 280 277 274 272 270 271 269 267 266 265 265 265 266 269 270 271 271 272 272 271 271 276 281 279 277 279 280 281 283 284 284 283 282 282 286 296 298 294 303 309 304 301 302 306 303 300 307 321 327 317 293 294 299 302 307 308 305 304 292 289 324 328
279 281 281 282 282 282 282 282 283 283 283 283 283 284 286 287 289 291 295 297 294 293 292 289 286 283 280 274 271 268 266 266 266 266 263 261 263 264 265 267 268 271 273 274 273 271 273 278 280 278 278 279 279 281 284 284 283 282 284 289 293 301 301 299 306 307 302 303 307 315 315 305 300 293 293 297 299 302 307 313 316 316 311 311 315 321 322 313
275 276 277 279 280 281 282 282 284 285 285 284 285 287 288 291 294 297 302 303 299 298 299 294 285 281 279 272 266 261 262 263 260 259 258 259 262 263 264 265 266 271 275 276 274 273 277 282 281 280 280 276 275 284 292 287 281 280 288 299 297 298 299 299 304 301 296 298 300 303 302 293 293 293 294 301 306 310 319 323 319 138 136 349 334 330 310 278
273 273 273 275 277 278 277 278 281 283 283 283 285 286 289 293 297 303 310 309 301 301 309 301 279 276 277 268 256 248 251 252 244 251 261 261 262 263 265 266 267 271 277 277 271 272 283 289 286 286 284 276 277 289 300 296 282 281 292 301 294 294 295 295 297 292 291 295 296 293 278 277 288 293 301 307 310 319 330 336 159 143 135 323 331 327 258 244
272 271 271 273 274 274 275 278 279 279 280 281 282 284 288 292 297 303 311 310 293 302 316 301 280 276 267 245 236 233 239 254 260 264 266 263 265 266 265 267 267 270 274 271 267 273 288 291 288 289 285 284 289 295 298 291 282 284 295 296 288 288 287 287 289 287 294 298 296 297 277 257 281 290 301 308 308 328 344 343 165 152 12 327 324 304 241 239
272 270 270 270 270 271 274 277 278 278 279 280 282 285 287 291 294 297 298 270 272 292 295 282 269 256 245 238 243 250 257 266 266 264 265 263 264 263 261 265 267 269 271 270 272 280 291 290 289 288 285 289 295 295 285 280 282 286 289 286 282 282 279 280 282 284 292 292 280 276 258 237 285 292 308 315 306 344 344 255 186 193 332 324 306 248 232 245
272 271 270 269 270 273 275 275 277 278 281 285 289 292 293 294 291 284 260 252 270 288 286 277 265 252 255 256 254 256 260 262 261 264 267 263 258 258 260 264 266 269 271 273 277 282 286 285 284 284 286 290 290 284 281 281 280 279 278 277 277 278 277 276 274 275 282 278 268 271 267 251 282 299 355 27 351 358 324 258 228 269 315 317 282 225 235 269
271 272 271 271 273 276 276 278 278 278 281 285 289 294 295 292 281 249 221 262 275 283 279 275 267 261 262 259 254 254 256 257 260 263 263 260 258 259 262 266 269 276 279 280 281 283 283 281 280 282 283 284 283 281 282 280 276 274 272 271 276 279 278 273 263 251 223 265 270 277 276 241 242 269 306 307 305 314 301 266 266 286 306 309 266 232 276 300
272 274 274 275 275 275 276 278 277 277 279 281 285 288 288 284 262 239 241 266 282 288 276 274 279 282 279 270 264 261 256 255 259 258 256 257 256 256 259 267 277 283 284 284 284 283 281 279 278 279 278 277 279 279 279 279 277 273 266 261 267 289 296 270 206 194 206 248 267 278 260 228 248 269 282 288 295 302 295 280 282 294 307 301 272 275 302 306
275 276 277 276 276 275 275 275 274 272 272 274 275 275 275 270 254 248 249 255 256 262 276 287 295 297 294 284 276 268 260 258 257 252 251 253 254 257 261 268 274 277 280 284 284 283 283 281 276 274 274 274 273 275 277 279 279 273 262 254 241 214 305 261 248 271 251 257 267 264 245 238 263 278 288 295 299 301 298 293 290 295 298 287 285 297 301 288
277 277 277 276 276 275 273 272 270 267 264 263 264 263 253 243 250 255 254 255 256 264 273 277 283 287 286 279 269 263 261 261 257 250 251 257 261 265 265 266 268 271 277 281 279 277 276 279 279 274 269 270 271 274 274 272 272 274 271 261 247 241 243 244 245 248 267 278 269 224 212 237 268 281 290 296 297 296 295 294 292 293 292 290 294 297 279 264
277 277 277 276 276 275 273 270 267 264 259 256 257 254 242 241 252 258 259 263 264 267 270 274 279 281 279 274 267 264 263 262 261 258 259 263 265 267 266 262 261 266 275 275 274 275 269 273 281 276 262 267 273 270 262 260 265 270 264 249 246 252 255 254 253 258 270 288 268 229 238 261 273 283 288 292 294 294 294 295 295 296 295 291 290 272 238 271
276 276 276 276 275 274 272 268 264 260 257 253 248 247 246 248 254 259 262 268 268 268 271 274 276 275 273 272 269 267 265 262 263 262 260 260 261 261 261 262 264 269 271 267 266 270 267 271 279 277 268 267 271 266 257 254 254 252 247 246 255 262 261 260 262 266 270 277 267 258 263 272 280 287 289 291 294 294 296 299 301 302 295 270 266 275 277 282
275 275 274 274 273 271 267 264 260 251 248 247 241 244 251 254 255 257 260 266 268 271 274 273 272 269 267 268 270 272 269 262 258 254 252 254 256 259 262 268 273 273 269 263 262 262 262 267 271 273 272 269 269 269 262 253 249 247 253 262 269 270 262 258 261 271 259 256 264 256 263 274 279 284 288 291 293 294 294 295 296 292 258 269 290 290 286 291
273 273 273 272 270 267 263 258 254 245 242 243 243 247 253 256 257 258 259 263 267 270 270 266 264 263 260 262 268 274 273 266 257 252 253 255 258 266 271 273 272 270 265 260 260 258 258 264 267 269 272 271 268 268 263 257 255 254 258 262 263 263 257 246 234 249 250 253 264 241 251 264 261 268 283 288 291 295 295 290 286 280 275 285 288 279 281 292
271 270 270 270 268 264 259 253 247 242 238 240 244 247 251 254 256 259 260 262 263 264 264 261 259 260 260 263 268 272 274 271 267 262 259 256 257 266 274 271 264 264 262 257 256 258 258 261 265 268 271 271 263 260 261 263 261 258 257 258 258 258 261 254 245 250 256 260 270 255 248 252 254 263 275 281 287 293 293 290 290 291 289 286 278 274 280 286
270 269 268 268 266 262 258 251 244 239 236 239 242 246 250 253 257 260 262 262 262 261 261 262 261 263 265 268 271 273 273 270 266 264 262 260 261 265 268 267 267 268 266 259 256 259 259 254 257 265 267 266 261 261 264 266 266 264 261 261 262 260 262 263 256 254 257 262 270 265 257 252 255 262 269 274 281 286 288 290 292 296 296 288 279 278 282 283
269 268 267 267 268 265 259 249 243 241 240 241 244 248 251 254 258 261 262 263 264 263 263 264 264 266 268 270 271 272 270 268 268 268 267 266 265 265 266 269 271 271 268 264 261 263 263 258 256 259 258 259 262 265 266 267 271 276 275 272 270 267 262 262 260 255 252 249 252 261 262 254 253 260 268 274 281 286 289 289 288 291 294 290 286 284 283 283
267 266 267 268 268 268 261 251 248 246 244 245 248 251 254 256 259 262 265 267 268 267 267 267 267 268 268 269 270 270 269 269 270 270 269 269 267 267 270 273 274 272 271 271 270 268 267 261 255 252 252 256 262 264 265 270 275 276 276 273 271 265 255 250 252 259 256 252 256 261 262 259 259 264 271 277 283 289 290 287 284 287 288 288 288 287 284 284
265 265 266 267 266 265 259 252 250 249 247 250 253 254 256 259 261 263 266 268 269 269 268 267 267 268 268 269 270 269 269 270 271 270 271 273 273 273 275 276 274 272 271 271 270 266 262 256 252 256 261 263 266 268 268 271 273 271 269 269 267 262 256 252 254 262 263 259 260 263 263 264 267 270 275 281 286 288 285 282 284 286 286 287 288 288 288 288
265 266 266 265 265 261 254 252 254 253 252 254 255 256 257 258 260 261 264 266 267 268 268 268 268 268 268 269 269 269 269 269 270 272 273 273 274 275 276 274 271 270 269 268 269 269 263 258 256 261 271 270 267 269 268 268 269 268 268 269 268 266 265 261 260 262 263 260 259 259 261 266 269 274 279 282 283 279 275 277 282 284 284 286 287 289 292 293
265 265 264 262 260 256 254 258 259 257 256 257 256 257 258 259 260 262 263 265 265 266 268 269 270 270 269 268 267 267 266 266 267 270 271 271 273 275 276 276 275 273 269 266 268 267 261 257 255 253 253 259 260 262 265 267 269 270 270 269 268 271 272 273 270 265 263 263 259 256 267 275 277 280 283 281 277 272 271 274 277 279 280 282 283 285 288 290
264 264 263 263 260 257 259 261 258 255 257 257 257 258 259 260 262 263 264 264 265 266 267 267 268 270 269 267 268 267 267 267 267 268 270 272 273 274 275 276 275 272 268 268 268 266 262 260 259 257 254 256 262 266 268 270 273 274 275 274 274 273 273 275 274 264 265 270 265 263 272 278 280 283 282 278 277 277 276 275 276 276 278 280 282 284 286 287
264 263 263 263 261 259 261 260 255 254 256 255 255 257 260 262 264 265 265 266 266 266 268 267 266 266 267 268 269 269 269 270 271 271 272 273 273 274 273 272 271 269 269 270 269 268 269 269 267 265 264 264 268 272 274 277 279 278 277 276 276 275 273 272 269 265 268 271 269 272 276 279 281 283 281 280 282 282 281 281 281 281 281 282 284 284 285 284
264 263 262 261 260 261 262 262 259 258 257 256 256 258 260 262 263 265 265 266 267 268 269 269 267 267 267 268 269 270 271 272 271 271 272 273 273 274 273 272 271 270 270 270 269 269 270 270 270 270 271 273 274 276 277 278 277 275 274 273 273 274 272 270 269 271 273 273 274 279 280 281 282 282 282 285 287 285 285 285 285 284 284 284 283 282 282 283
264 264 264 263 263 265 266 267 267 265 263 260 258 259 262 262 263 265 264 264 266 267 268 269 270 270 270 271 271 271 270 270 270 271 272 273 274 274 273 273 272 272 272 272 273 273 271 272 274 273 273 272 271 272 271 270 272 275 277 278 279 278 275 273 274 277 277 275 277 280 281 280 280 280 281 283 283 282 283 283 282 281 281 281 280 280 281 283
265 265 266 265 266 268 268 268 267 266 266 262 258 261 265 265 266 267 264 264 267 269 269 270 271 272 273 275 276 275 275 275 273 270 269 272 275 275 274 274 274 274 274 274 275 273 269 268 269 270 272 269 263 262 265 269 277 284 286 285 284 282 278 276 276 276 275 275 278 279 279 277 274 273 274 275 275 277 277 276 277 277 277 277 277 278 280 282
267 266 266 266 266 266 266 267 266 265 265 264 262 263 264 263 264 265 263 263 266 268 270 271 273 274 274 275 276 273 269 267 265 265 268 274 275 272 269 269 270 270 270 269 268 264 261 264 267 272 278 277 270 269 274 282 288 287 283 281 281 278 276 275 275 274 274 275 276 276 276 273 269 267 267 268 270 271 270 271 273 273 272 273 273 275 277 279
267 267 266 266 265 265 265 265 265 263 264 265 265 264 262 261 261 261 260 261 260 260 263 265 268 269 268 268 267 262 256 256 259 263 270 273 267 260 258 258 258 260 262 262 262 260 261 268 277 281 282 282 281 282 286 291 292 282 279 281 282 279 277 275 273 271 271 271 271 272 272 272 272 270 268 266 265 264 266 270 272 273 274 274 274 275 276 279
Height
3187 3187 3187 3187 3187 3187 3187 3187 3187 3186 3186 3186 3186 3185 3185 3185 3185 3185 3185 3184 3184 3184 3184 3183 3183 3183 3182 3181 3181 3181 3181 3181 3180 3180 3180 3179 3179 3178 3178 3178 3177 3177 3177 3176 3176 3175 3175 3175 3175 3174 3174 3173 3173 3173 3172 3171 3171 3170 3169 3168 3167 3167 3167 3167 3167 3166 3164 3164 3164 3163 3162 3161 3160 3161 3159 3157 3157 3157 3157 3157 3156 3156 3156 3155 3154 3154 3153 3152
3186 3186 3186 3186 3186 3186 3186 3186 3186 3185 3185 3185 3185 3184 3184 3184 3184 3184 3184 3184 3183 3183 3183 3182 3182 3182 3181 3181 3180 3180 3180 3180 3180 3179 3178 3178 3178 3177 3177 3177 3176 3176 3175 3175 3175 3174 3174 3174 3173 3173 3173 3172 3172 3171 3171 3170 3170 3169 3167 3165 3165 3166 3166 3165 3166 3165 3163 3162 3161 3161 3161 3160 3159 3159 3157 3155 3155 3156 3155 3155 3155 3155 3155 3154 3152 3151 3151 3150
3185 3185 3185 3185 3185 3185 3185 3185 3185 3184 3184 3184 3183 3183 3183 3183 3183 3183 3183 3182 3182 3182 3181 3181 3181 3181 3180 3180 3179 3179 3179 3179 3179 3178 3177 3177 3177 3176 3176 3175 3175 3175 3174 3174 3173 3173 3172 3172 3172 3171 3171 3171 3171 3170 3169 3169 3168 3167 3165 3163 3163 3165 3164 3163 3164 3164 3162 3161 3159 3159 3159 3158 3158 3157 3155 3153 3153 3154 3154 3154 3154 3153 3153 3152 3150 3149 3148 3148
3184 3184 3184 3184 3184 3184 3184 3183 3183 3183 3183 3182 3182 3182 3182 3182 3181 3181 3181 3181 3181 3180 3180 3180 3179 3179 3179 3179 3178 3177 3177 3177 3178 3177 3176 3176 3175 3175 3175 3174 3174 3173 3173 3172 3172 3171 3171 3170 3170 3170 3169 3169 3169 3169 3168 3168 3167 3165 3163 3162 3163 3163 3162 3161 3163 3162 3161 3159 3157 3157 3157 3156 3157 3155 3153 3152 3150 3151 3153 3153 3152 3151 3151 3150 3148 3147 3146 3146
3183 3182 3182 3182 3182 3183 3182 3182 3182 3182 3181 3181 3180 3180 3180 3180 3180 3180 3180 3180 3179 3179 3179 3178 3178 3177 3177 3177 3177 3176 3175 3176 3176 3176 3175 3175 3174 3174 3174 3173 3172 3172 3171 3171 3171 3170 3169 3168 3168 3168 3168 3167 3167 3167 3167 3167 3165 3162 3160 3160 3161 3161 3159 3159 3161 3160 3159 3157 3156 3156 3155 3154 3154 3153 3152 3150 3148 3149 3151 3151 3150 3149 3148 3147 3146 3145 3145 3144
3181 3181 3181 3181 3181 3181 3181 3181 3181 3180 3180 3179 3179 3179 3178 3178 3178 3178 3178 3178 3178 3177 3177 3177 3176 3176 3176 3175 3175 3174 3174 3175 3175 3174 3174 3174 3173 3173 3172 3172 3171 3170 3170 3169 3169 3168 3167 3167 3166 3166 3166 3165 3165 3165 3165 3165 3163 3160 3158 3158 3159 3159 3157 3157 3158 3157 3156 3155 3154 3154 3153 3152 3151 3150 3150 3147 3147 3149 3150 3150 3148 3147 3146 3145 3144 3144 3143 3142
3179 3179 3179 3179 3179 3179 3179 3179 3179 3179 3178 3178 3177 3177 3177 3176 3176 3176 3176 3176 3176 3175 3175 3175 3175 3174 3174 3173 3173 3172 3171 3173 3175 3172 3172 3172 3171 3171 3170 3170 3169 3169 3168 3167 3167 3166 3165 3165 3164 3164 3163 3163 3162 3162 3162 3161 3160 3158 3155 3156 3157 3157 3155 3155 3155 3153 3153 3152 3152 3152 3151 3150 3149 3148 3146 3142 3145 3148 3148 3148 3147 3145 3144 3143 3142 3142 3141 3140
3177 3177 3177 3177 3177 3177 3177 3177 3177 3177 3176 3176 3176 3175 3175 3174 3174 3174 3174 3174 3173 3173 3173 3173 3172 3172 3172 3171 3171 3169 3168 3172 3173 3170 3170 3169 3169 3169 3169 3168 3167 3167 3166 3165 3165 3164 3163 3163 3163 3162 3161 3161 3160 3159 3159 3158 3157 3155 3153 3154 3154 3153 3152 3153 3151 3150 3150 3149 3149 3148 3148 3148 3147 3146 3140 3138 3144 3147 3146 3146 3144 3143 3141 3140 3140 3139 3138 3137
3175 3175 3175 3174 3174 3174 3174 3175 3175 3174 3174 3174 3173 3173 3173 3172 3172 3172 3172 3171 3171 3171 3171 3170 3170 3170 3169 3169 3168 3165 3167 3170 3170 3168 3168 3167 3167 3167 3166 3166 3165 3165 3164 3163 3162 3162 3161 3161 3161 3160 3158 3158 3157 3156 3156 3155 3153 3152 3152 3151 3150 3149 3150 3149 3148 3147 3147 3146 3146 3144 3144 3145 3145 3142 3135 3135 3143 3144 3143 3143 3141 3140 3138 3138 3137 3136 3136 3135
3172 3172 3172 3172 3172 3172 3172 3172 3172 3172 3172 3171 3171 3171 3170 3170 3170 3170 3169 3169 3169 3169 3168 3168 3168 3168 3167 3167 3165 3162 3165 3169 3167 3166 3166 3165 3166 3165 3164 3164 3163 3162 3162 3161 3160 3160 3159 3159 3158 3157 3156 3156 3155 3154 3154 3152 3150 3149 3149 3148 3147 3146 3146 3145 3143 3144 3144 3143 3142 3140 3140 3142 3141 3138 3131 3134 3141 3140 3139 3138 3137 3136 3135 3135 3134 3133 3133 3132
3170 3170 3170 3169 3169 3169 3169 3169 3169 3169 3169 3169 3168 3168 3168 3167 3167 3167 3167 3167 3167 3166 3166 3165 3165 3165 3164 3164 3162 3160 3164 3165 3164 3164 3164 3164 3164 3163 3162 3161 3160 3160 3159 3158 3158 3157 3157 3156 3155 3155 3154 3153 3153 3152 3151 3149 3147 3146 3145 3144 3145 3144 3142 3141 3140 3141 3141 3139 3138 3136 3135 3137 3138 3133 3130 3133 3136 3135 3134 3133 3133 3132 3131 3132 3131 3130 3129 3128
3167 3167 3167 3167 3167 3166 3166 3166 3166 3166 3166 3166 3165 3165 3165 3164 3164 3164 3164 3164 3164 3163 3163 3162 3162 3162 3162 3161 3159 3160 3162 3161 3161 3162 3161 3162 3161 3160 3159 3158 3158 3157 3156 3156 3155 3155 3154 3153 3152 3152 3152 3151 3151 3150 3148 3146 3144 3143 3143 3141 3141 3141 3138 3138 3138 3139 3138 3136 3135 3133 3129 3130 3133 3130 3129 3132 3132 3130 3129 3128 3129 3128 3128 3128 3127 3126 3125 3125
3165 3165 3164 3164 3164 3164 3163 3163 3163 3163 3163 3163 3162 3162 3161 3161 3161 3161 3161 3161 3161 3160 3160 3159 3159 3159 3158 3157 3158 3159 3159 3158 3158 3159 3159 3159 3158 3157 3156 3155 3155 3154 3153 3153 3152 3152 3151 3150 3149 3149 3149 3149 3149 3148 3146 3143 3141 3141 3141 3138 3137 3136 3133 3134 3137 3136 3136 3134 3132 3130 3122 3121 3127 3127 3127 3129 3127 3125 3124 3124 3124 3123 3123 3123 3122 3121 3120 3120
3162 3161 3162 3161 3161 3161 3161 3160 3160 3160 3160 3159 3159 3159 3158 3158 3157 3157 3158 3157 3157 3157 3156 3156 3155 3155 3154 3153 3156 3155 3155 3156 3156 3156 3155 3155 3154 3154 3153 3152 3151 3150 3150 3150 3150 3149 3148 3148 3147 3146 3147 3147 3147 3146 3143 3140 3138 3139 3138 3134 3134 3131 3128 3132 3136 3133 3133 3130 3127 3125 3116 3113 3121 3124 3125 3125 3122 3120 3119 3119 3119 3118 3118 3117 3117 3116 3114 3115
3158 3158 3158 3158 3158 3158 3158 3158 3157 3157 3156 3156 3156 3155 3155 3154 3154 3154 3154 3153 3153 3153 3153 3152 3152 3151 3149 3150 3153 3152 3152 3153 3152 3152 3151 3151 3151 3150 3149 3149 3148 3148 3147 3147 3146 3146 3145 3144 3143 3144 3145 3145 3145 3144 3140 3135 3136 3138 3134 3130 3131 3127 3124 3130 3134 3132 3129 3126 3124 3121 3111 3108 3114 3118 3122 3122 3118 3116 3113 3113 3114 3114 3113 3111 3111 3111 3110 3109
3155 3155 3155 3155 3155 3155 3155 3155 3154 3154 3153 3153 3153 3152 3152 3151 3151 3151 3150 3150 3150 3149 3149 3148 3148 3148 3146 3147 3149 3149 3150 3149 3149 3149 3148 3148 3147 3146 3145 3145 3144 3144 3144 3143 3143 3143 3142 3141 3140 3141 3142 3143 3143 3142 3137 3132 3133 3136 3132 3127 3128 3126 3123 3124 3128 3130 3127 3121 3120 3117 3108 3103 3108 3112 3116 3118 3115 3111 3108 3107 3108 3109 3108 3107 3106 3105 3105 3104
3152 3152 3152 3152 3152 3152 3152 3152 3151 3151 3151 3150 3150 3149 3149 3148 3148 3148 3147 3147 3146 3146 3145 3145 3145 3143 3142 3144 3145 3146 3146 3145 3145 3145 3145 3145 3143 3142 3142 3141 3141 3141 3140 3140 3140 3139 3138 3137 3137 3138 3139 3140 3141 3140 3134 3130 3130 3132 3130 3126 3124 3125 3123 3121 3122 3127 3126 3118 3115 3113 3104 3099 3102 3107 3110 3112 3113 3108 3103 3102 3102 3103 3103 3102 3101 3100 3100 3099
3148 3148 3148 3148 3149 3149 3149 3149 3148 3148 3148 3147 3147 3147 3146 3145 3145 3145 3144 3144 3143 3143 3142 3141 3141 3139 3139 3140 3141 3142 3143 3142 3142 3142 3142 3142 3140 3139 3138 3137 3137 3137 3137 3137 3136 3136 3135 3134 3133 3133 3135 3136 3137 3137 3131 3127 3128 3128 3128 3124 3121 3121 3120 3119 3118 3121 3123 3115 3110 3107 3099 3095 3098 3101 3103 3105 3108 3104 3099 3098 3097 3097 3097 3097 3097 3095 3094 3093
3145 3145 3145 3145 3145 3146 3146 3146 3145 3145 3145 3144 3144 3144 3143 3142 3142 3141 3141 3141 3140 3140 3138 3138 3138 3136 3136 3138 3138 3138 3139 3139 3139 3139 3138 3138 3136 3135 3134 3134 3133 3133 3133 3133 3132 3132 3132 3129 3128 3128 3130 3132 3133 3133 3128 3127 3127 3125 3124 3123 3120 3117 3115 3116 3116 3117 3120 3109 3103 3103 3094 3090 3093 3095 3097 3099 3100 3098 3095 3095 3094 3093 3093 3093 3092 3090 3089 3088
3142 3142 3142 3142 3142 3142 3142 3142 3142 3142 3142 3142 3141 3141 3140 3139 3138 3137 3137 3137 3137 3137 3135 3135 3134 3132 3133 3135 3135 3134 3135 3135 3135 3135 3135 3133 3132 3131 3130 3130 3129 3129 3129 3129 3128 3128 3127 3124 3121 3124 3126 3128 3130 3129 3127 3125 3125 3122 3121 3120 3118 3114 3109 3111 3113 3114 3118 3104 3093 3098 3090 3085 3088 3088 3091 3093 3092 3091 3091 3092 3091 3089 3089 3088 3088 3086 3085 3084
3139 3139 3139 3139 3139 3139 3139 3139 3139 3139 3139 3139 3139 3138 3137 3136 3134 3133 3131 3131 3133 3133 3131 3131 3129 3128 3130 3131 3130 3130 3130 3130 3131 3131 3130 3129 3128 3127 3126 3125 3124 3124 3125 3126 3125 3123 3122 3117 3117 3122 3124 3126 3126 3125 3124 3122 3121 3120 3119 3116 3113 3112 3105 3106 3110 3110 3114 3101 3087 3092 3085 3077 3082 3082 3083 3087 3085 3085 3086 3088 3087 3085 3085 3084 3083 3082 3081 3080
3136 3136 3136 3136 3136 3136 3136 3136 3136 3136 3135 3136 3136 3135 3134 3133 3131 3129 3126 3124 3126 3129 3127 3127 3125 3123 3127 3128 3126 3127 3125 3125 3126 3126 3126 3125 3124 3124 3121 3120 3120 3120 3121 3122 3120 3117 3115 3113 3117 3122 3122 3122 3121 3121 3120 3119 3118 3116 3116 3114 3108 3109 3104 3100 3104 3106 3108 3099 3086 3088 3078 3067 3075 3077 3076 3080 3080 3080 3081 3082 3083 3082 3081 3080 3080 3079 3077 3076
3133 3133 3133 3132 3133 3133 3133 3133 3133 3133 3132 3133 3133 3132 3131 3130 3129 3127 3123 3118 3118 3122 3123 3122 3120 3119 3122 3123 3122 3122 3120 3119 3121 3121 3122 3121 3119 3120 3117 3116 3116 3116 3116 3117 3115 3113 3110 3111 3116 3119 3118 3117 3116 3117 3117 3115 3113 3111 3112 3112 3105 3107 3105 3096 3098 3102 3102 3096 3087 3085 3071 3059 3067 3069 3068 3074 3074 3077 3079 3078 3079 3079 3078 3077 3077 3075 3074 3073
3129 3130 3130 3129 3130 3130 3130 3130 3130 3130 3130 3130 3129 3129 3128 3128 3126 3124 3122 3115 3110 3113 3118 3117 3115 3115 3117 3118 3117 3117 3115 3114 3115 3115 3117 3116 3115 3115 3113 3113 3113 3111 3112 3112 3111 3108 3106 3110 3113 3114 3113 3113 3112 3113 3114 3111 3107 3106 3108 3109 3103 3103 3104 3097 3096 3096 3095 3093 3089 3084 3067 3052 3059 3064 3063 3070 3072 3073 3076 3075 3074 3074 3073 3073 3073 3072 3071 3070
3127 3127 3126 3126 3126 3126 3127 3126 3126 3127 3127 3127 3127 3127 3126 3125 3125 3122 3120 3114 3104 3105 3111 3112 3110 3110 3111 3112 3111 3111 3109 3109 3110 3111 3112 3111 3111 3111 3110 3111 3109 3107 3108 3108 3107 3102 3103 3109 3109 3108 3109 3109 3109 3108 3110 3108 3102 3102 3104 3104 3101 3100 3100 3097 3096 3093 3088 3088 3088 3087 3073 3051 3051 3060 3061 3064 3068 3068 3070 3069 3068 3068 3068 3070 3070 3070 3070 3069
3124 3124 3124 3123 3123 3123 3123 3123 3123 3124 3124 3124 3124 3124 3124 3123 3122 3121 3118 3112 3101 3099 3104 3105 3105 3105 3105 3107 3106 3106 3106 3106 3107 3108 3109 3108 3108 3108 3107 3107 3106 3105 3106 3105 3103 3098 3100 3106 3105 3104 3105 3105 3106 3105 3106 3105 3100 3098 3099 3101 3099 3097 3097 3095 3095 3093 3087 3085 3084 3089 3087 3061 3043 3049 3056 3058 3061 3063 3063 3064 3062 3063 3065 3067 3068 3069 3068 3067
3120 3121 3121 3120 3120 3120 3120 3120 3121 3121 3120 3121 3121 3121 3122 3121 3121 3120 3117 3111 3100 3096 3100 3101 3101 3102 3103 3104 3104 3104 3105 3104 3105 3106 3106 3106 3106 3105 3104 3104 3104 3104 3103 3103 3100 3096 3098 3102 3101 3101 3102 3102 3103 3102 3102 3103 3100 3096 3096 3097 3096 3095 3094 3092 3092 3092 3087 3084 3081 3082 3090 3077 3045 3038 3050 3053 3055 3059 3059 3059 3059 3059 3062 3064 3066 3066 3065 3064
3117 3117 3117 3117 3117 3116 3116 3117 3118 3118 3118 3117 3118 3119 3118 3119 3119 3118 3119 3114 3099 3093 3098 3099 3100 3101 3101 3103 3103 3103 3104 3104 3104 3104 3104 3104 3103 3103 3102 3101 3102 3101 3100 3100 3095 3095 3098 3098 3098 3098 3098 3098 3098 3099 3099 3099 3097 3094 3094 3094 3093 3093 3092 3091 3090 3089 3087 3083 3078 3076 3085 3083 3053 3036 3048 3052 3052 3057 3056 3057 3059 3057 3059 3061 3062 3063 3062 3061
3113 3114 3114 3114 3113 3113 3114 3114 3115 3115 3114 3114 3115 3116 3116 3117 3117 3116 3120 3113 3096 3092 3097 3097 3098 3100 3100 3102 3102 3102 3102 3102 3102 3102 3102 3102 3100 3100 3099 3099 3099 3097 3097 3096 3092 3094 3096 3095 3094 3094 3094 3094 3095 3095 3095 3095 3094 3092 3092 3090 3089 3090 3088 3089 3088 3087 3089 3082 3075 3075 3081 3082 3057 3036 3046 3051 3049 3055 3055 3057 3059 3056 3057 3058 3058 3059 3058 3058
3110 3110 3111 3110 3109 3110 3111 3111 3112 3111 3111 3112 3112 3113 3113 3114 3113 3115 3115 3103 3093 3094 3095 3094 3096 3098 3098 3100 3100 3100 3100 3100 3099 3099 3099 3099 3098 3098 3098 3097 3097 3095 3094 3093 3090 3092 3093 3092 3091 3090 3091 3092 3092 3092 3091 3091 3091 3089 3089 3086 3086 3086 3083 3085 3084 3084 3088 3079 3071 3073 3077 3082 3063 3038 3043 3050 3049 3054 3055 3055 3056 3055 3056 3056 3055 3056 3055 3055
3108 3108 3108 3107 3107 3108 3108 3109 3110 3109 3109 3109 3110 3111 3111 3111 3111 3111 3103 3092 3092 3094 3092 3092 3094 3095 3096 3097 3097 3097 3097 3097 3097 3098 3097 3097 3097 3096 3096 3096 3095 3093 3091 3090 3089 3090 3090 3089 3088 3088 3089 3090 3089 3089 3088 3087 3087 3086 3086 3084 3084 3083 3081 3081 3080 3082 3085 3074 3068 3071 3073 3078 3065 3040 3042 3049 3049 3054 3056 3055 3053 3053 3055 3055 3055 3054 3053 3054
3105 3105 3104 3104 3105 3105 3105 3106 3107 3107 3107 3107 3108 3108 3109 3109 3106 3098 3091 3091 3094 3092 3090 3092 3092 3093 3095 3094 3095 3095 3095 3095 3095 3096 3095 3095 3095 3094 3095 3095 3094 3092 3089 3087 3088 3087 3086 3086 3086 3086 3086 3087 3086 3085 3084 3083 3083 3083 3082 3083 3084 3083 3081 3080 3078 3079 3077 3068 3065 3068 3070 3070 3054 3037 3042 3048 3047 3051 3053 3054 3052 3051 3052 3052 3053 3053 3053 3053
3101 3101 3101 3101 3101 3102 3103 3104 3104 3105 3105 3105 3106 3105 3107 3107 3095 3085 3087 3093 3093 3090 3090 3091 3090 3092 3093 3092 3093 3093 3093 3093 3093 3094 3093 3093 3092 3092 3093 3093 3093 3091 3087 3086 3085 3083 3081 3080 3082 3083 3082 3083 3082 3082 3082 3080 3080 3080 3079 3081 3082 3082 3080 3078 3076 3075 3070 3063 3062 3065 3067 3061 3045 3037 3041 3044 3045 3046 3047 3049 3049 3048 3049 3049 3049 3051 3051 3050
3097 3097 3097 3097 3098 3099 3100 3101 3101 3102 3103 3103 3103 3103 3104 3097 3084 3081 3087 3089 3089 3089 3090 3089 3089 3089 3089 3089 3090 3090 3090 3090 3090 3091 3090 3090 3089 3089 3090 3091 3091 3090 3087 3085 3082 3080 3078 3074 3075 3078 3078 3078 3079 3079 3080 3078 3077 3076 3076 3078 3076 3076 3075 3073 3070 3067 3063 3060 3061 3062 3060 3052 3041 3037 3039 3041 3043 3043 3043 3045 3044 3044 3045 3045 3045 3048 3048 3046
3093 3093 3093 3093 3094 3095 3096 3097 3098 3098 3099 3100 3100 3100 3095 3084 3079 3082 3084 3085 3086 3087 3087 3087 3087 3086 3085 3085 3085 3086 3087 3086 3085 3087 3087 3086 3086 3085 3086 3087 3088 3088 3087 3084 3080 3078 3076 3070 3070 3073 3074 3074 3075 3075 3076 3075 3074 3072 3072 3073 3070 3070 3070 3068 3064 3062 3060 3058 3058 3056 3050 3043 3039 3037 3038 3040 3039 3039 3040 3041 3041 3040 3041 3042 3043 3044 3044 3043
3088 3088 3089 3089 3090 3091 3092 3093 3094 3095 3096 3096 3096 3092 3083 3078 3080 3082 3082 3083 3084 3084 3084 3085 3084 3082 3080 3079 3080 3081 3082 3081 3081 3082 3082 3081 3081 3081 3081 3082 3084 3085 3084 3083 3080 3077 3073 3068 3068 3070 3069 3070 3071 3071 3072 3071 3070 3069 3068 3067 3067 3067 3067 3065 3061 3060 3060 3057 3052 3050 3043 3039 3039 3035 3035 3037 3035 3035 3038 3038 3039 3038 3038 3040 3042 3042 3041 3040
3084 3084 3084 3084 3085 3087 3088 3088 3089 3090 3091 3092 3089 3082 3076 3075 3079 3080 3081 3082 3082 3082 3083 3082 3080 3080 3078 3076 3076 3076 3077 3077 3077 3077 3077 3077 3076 3075 3076 3078 3079 3079 3080 3080 3077 3075 3071 3066 3066 3067 3065 3066 3068 3067 3067 3066 3066 3065 3065 3064 3064 3064 3063 3063 3060 3059 3059 3054 3047 3046 3042 3040 3041 3034 3031 3034 3032 3033 3036 3037 3038 3037 3038 3040 3040 3039 3038 3037
3079 3079 3078 3079 3081 3082 3083 3084 3084 3085 3086 3086 3081 3075 3073 3073 3075 3077 3078 3079 3079 3080 3080 3078 3078 3077 3076 3075 3074 3074 3075 3074 3074 3074 3074 3073 3071 3070 3071 3072 3073 3073 3075 3076 3073 3071 3070 3064 3062 3064 3063 3062 3064 3064 3061 3061 3061 3061 3061 3062 3062 3061 3059 3059 3058 3056 3056 3050 3044 3042 3040 3039 3039 3033 3031 3033 3030 3029 3032 3034 3035 3036 3037 3038 3037 3036 3034 3032
3074 3074 3073 3074 3076 3077 3078 3079 3080 3081 3080 3077 3073 3070 3069 3069 3070 3073 3074 3075 3077 3077 3075 3075 3075 3074 3073 3073 3072 3073 3073 3071 3071 3071 3070 3069 3067 3066 3067 3068 3069 3070 3071 3072 3069 3067 3067 3063 3058 3060 3060 3057 3058 3059 3056 3055 3057 3057 3057 3058 3059 3057 3055 3054 3053 3052 3050 3045 3039 3037 3034 3033 3034 3033 3033 3032 3029 3028 3028 3028 3030 3032 3034 3035 3033 3032 3029 3025
3069 3069 3068 3069 3071 3072 3074 3075 3075 3075 3072 3068 3067 3065 3065 3066 3067 3069 3070 3071 3072 3073 3071 3071 3072 3070 3069 3070 3069 3070 3070 3069 3069 3068 3067 3066 3065 3064 3065 3066 3066 3067 3068 3068 3066 3064 3064 3060 3055 3056 3058 3054 3051 3052 3051 3052 3054 3053 3053 3055 3054 3053 3052 3049 3047 3046 3045 3040 3036 3034 3028 3025 3030 3032 3031 3029 3028 3028 3027 3026 3027 3027 3027 3028 3027 3025 3022 3020
3064 3064 3063 3064 3066 3068 3070 3069 3068 3068 3065 3063 3063 3062 3062 3064 3064 3065 3065 3066 3067 3068 3068 3067 3067 3067 3066 3066 3066 3066 3066 3064 3064 3064 3062 3062 3062 3062 3062 3063 3064 3065 3064 3063 3062 3061 3059 3055 3051 3051 3051 3047 3045 3047 3048 3048 3049 3048 3048 3049 3049 3048 3049 3046 3040 3040 3040 3035 3032 3030 3021 3019 3027 3029 3027 3027 3026 3028 3029 3025 3021 3019 3018 3019 3019 3018 3016 3016
3059 3059 3059 3060 3061 3063 3064 3063 3062 3062 3060 3059 3059 3060 3060 3061 3061 3061 3062 3062 3062 3063 3063 3063 3062 3062 3061 3062 3062 3062 3061 3059 3059 3059 3057 3056 3058 3058 3058 3060 3061 3061 3060 3058 3057 3057 3055 3051 3046 3044 3042 3041 3041 3045 3045 3043 3043 3043 3042 3042 3043 3043 3044 3042 3036 3035 3035 3030 3028 3026 3016 3014 3022 3024 3024 3025 3025 3028 3026 3017 3013 3014 3013 3012 3012 3011 3011 3011
3055 3055 3055 3056 3057 3058 3058 3057 3057 3056 3054 3054 3056 3057 3058 3058 3058 3058 3058 3057 3057 3058 3058 3057 3057 3057 3057 3058 3058 3058 3057 3054 3052 3052 3052 3051 3052 3052 3054 3056 3056 3056 3056 3053 3052 3052 3049 3046 3042 3039 3037 3037 3038 3040 3040 3038 3037 3036 3035 3037 3037 3037 3038 3036 3033 3032 3030 3025 3026 3023 3011 3010 3017 3020 3022 3023 3025 3027 3019 3008 3009 3012 3008 3006 3005 3004 3004 3004
3050 3051 3051 3052 3052 3053 3052 3051 3051 3051 3050 3052 3053 3053 3054 3054 3054 3054 3054 3053 3053 3053 3053 3052 3053 3053 3053 3053 3053 3052 3053 3050 3047 3047 3048 3047 3047 3047 3049 3050 3051 3051 3051 3048 3048 3047 3044 3041 3040 3038 3035 3033 3033 3034 3034 3033 3032 3030 3030 3033 3033 3032 3033 3031 3029 3029 3023 3021 3024 3018 3007 3008 3015 3017 3019 3021 3021 3020 3013 3006 3007 3007 3001 2999 2997 2997 2998 2997
3046 3047 3047 3047 3048 3047 3046 3046 3047 3047 3048 3049 3048 3049 3050 3049 3048 3050 3050 3049 3049 3049 3049 3048 3049 3048 3048 3048 3047 3046 3047 3047 3043 3043 3043 3043 3042 3043 3044 3044 3045 3046 3046 3044 3044 3042 3039 3037 3037 3035 3033 3030 3029 3030 3030 3029 3028 3027 3027 3029 3029 3029 3030 3027 3026 3024 3018 3016 3017 3012 3004 3006 3012 3014 3015 3015 3014 3012 3009 3006 3004 3001 2998 2996 2993 2992 2992 2991
3042 3042 3042 3042 3043 3042 3042 3043 3044 3043 3044 3045 3043 3044 3045 3043 3044 3046 3045 3044 3044 3045 3045 3044 3045 3044 3043 3043 3042 3041 3042 3042 3041 3039 3039 3038 3039 3039 3039 3040 3040 3040 3040 3040 3039 3038 3034 3032 3032 3030 3027 3025 3024 3024 3026 3026 3024 3023 3023 3024 3025 3025 3025 3024 3021 3017 3014 3011 3008 3008 3006 3004 3007 3010 3009 3007 3007 3005 3004 3002 2999 2997 2995 2992 2991 2990 2989 2987
3038 3038 3038 3038 3038 3038 3038 3039 3039 3038 3040 3041 3039 3039 3040 3039 3040 3040 3040 3039 3039 3040 3040 3039 3040 3040 3038 3039 3039 3037 3037 3038 3037 3035 3034 3034 3034 3034 3035 3035 3035 3035 3035 3035 3034 3034 3030 3026 3026 3025 3022 3022 3022 3020 3022 3022 3019 3019 3019 3018 3019 3019 3019 3019 3013 3009 3011 3007 3000 3002 3005 3000 3001 3004 3001 2999 3001 2999 2997 2996 2994 2993 2991 2988 2987 2985 2984 2983
3034 3034 3034 3034 3034 3034 3034 3035 3035 3035 3036 3036 3035 3035 3035 3035 3035 3035 3036 3035 3034 3036 3036 3033 3033 3035 3034 3035 3035 3033 3033 3033 3031 3030 3030 3029 3029 3029 3029 3029 3029 3029 3030 3029 3028 3029 3026 3021 3021 3020 3017 3018 3019 3016 3017 3017 3014 3014 3014 3013 3013 3013 3013 3010 3005 3004 3007 3002 2995 2998 3000 2996 2995 2996 2994 2992 2993 2991 2990 2990 2988 2987 2987 2984 2981 2979 2977 2976
3030 3029 3030 3030 3030 3030 3031 3031 3032 3031 3032 3032 3031 3031 3031 3031 3031 3032 3033 3032 3030 3031 3032 3028 3028 3029 3030 3031 3031 3029 3029 3028 3025 3026 3026 3025 3025 3025 3024 3024 3024 3024 3024 3024 3023 3024 3021 3016 3016 3016 3012 3012 3013 3012 3012 3011 3009 3008 3008 3008 3009 3008 3006 3003 3000 3000 3000 2995 2991 2993 2993 2991 2990 2989 2988 2988 2986 2984 2984 2984 2982 2980 2980 2978 2976 2974 2972 2970
3025 3025 3026 3026 3026 3027 3027 3027 3028 3027 3027 3028 3027 3026 3027 3027 3027 3028 3029 3028 3026 3026 3027 3024 3023 3025 3025 3025 3025 3023 3023 3023 3021 3021 3022 3021 3021 3021 3020 3020 3020 3019 3019 3019 3019 3019 3017 3013 3012 3012 3007 3006 3008 3008 3007 3007 3004 3002 3002 3003 3004 3002 2999 2998 2996 2994 2992 2988 2987 2988 2987 2986 2984 2982 2983 2983 2981 2979 2978 2976 2976 2975 2973 2973 2971 2969 2968 2966
3020 3020 3021 3021 3021 3023 3022 3021 3023 3022 3022 3023 3022 3021 3023 3023 3023 3023 3023 3023 3022 3022 3022 3020 3018 3019 3020 3020 3020 3018 3017 3017 3016 3015 3017 3017 3017 3017 3016 3015 3015 3014 3014 3015 3015 3015 3013 3009 3008 3009 3004 2999 3002 3003 3001 3001 2999 2996 2996 2997 2996 2994 2992 2991 2989 2988 2985 2983 2982 2982 2981 2980 2979 2977 2978 2978 2976 2975 2973 2971 2971 2970 2969 2968 2966 2964 2963 2962
3015 3014 3016 3016 3015 3017 3017 3016 3018 3017 3016 3017 3017 3017 3018 3018 3018 3018 3017 3018 3018 3018 3018 3016 3015 3015 3014 3015 3015 3014 3013 3012 3011 3011 3011 3012 3012 3012 3011 3010 3010 3009 3008 3010 3009 3009 3009 3006 3005 3006 2999 2993 2997 2998 2996 2997 2993 2987 2987 2989 2988 2986 2985 2983 2982 2981 2980 2978 2976 2975 2974 2974 2974 2973 2972 2972 2972 2971 2969 2967 2966 2965 2964 2963 2961 2960 2959 2957